STARLINK-3894, 52499

Orbit data source: Space-Track

STARLINK-3894, 52499 is a payload satellite owned by SpaceX/Seattle (US) in LEO that was launched on Fri, 06 May 2022 UTC via an FALCON 9 launch vehicle from the Air Force Eastern Test Range (AFETR). Payload-class satellites include a variety of spacecraft equipped with specific instruments for various scientific and technological missions. These include communications satellites like Starlink; space stations such as the ISS; scientific satellites like the Hubble; Earth observation satellites from companies like Planet Labs, Umbra, and HawkEye 360; GPS; miniature CubeSats for education and research; and military/defense satellites.

Loading next visibility...
Identifier
52499, 2022-049BA
Orbit
LEO
Country
Flag of USUS
Related business
Manufacturer
SpaceX/Seattle
Mission
Operational Commercial Communications
Bus & Motor
STARLINK, Unknown motor
Mass
297 kg wet, ~220 kg dry
Launch date (UTC)
2022-05-06 (4 years ago)
Launch vehicle
FALCON 9
Launch site
Air Force Eastern Test Range (AFETR)
Object type
Payload
Rocket body
Debris
Shape & HBR
Box + 1 Pan, 10.1 m
Radar Cross Section
13.562 m², Large (>1 m²)

Expand to show TLE details & history
Last TLE update: 12 hours ago

TLE from 12 hours ago
0 STARLINK-3894
1 52499U 22049BA  25346.97240612 -.00000650  00000-0 -22731-4 0  9999
2 52499  53.2176  78.4115 0001486  95.5571 264.5591 15.08830161199309
Epoch: 2025-12-12T23:20Z
TLE epoch observation values (Epoch: 2025-12-12T23:20:15.888Z)
Latitude
-0.00001°
Longitude
6.43893°
Altitude
540.769 km
Speed
7.593 km/s
True Right ascension
05h 13m 38s
True Declination
0° 00' 00"
Sunlit
Object was in full shadow at epoch
Visualization orbit readout
Latitude
Unknown
Longitude
Unknown
Altitude
Unknown
Speed
Unknown
Apparent Right ascension
Unknown
Apparent Declination
Unknown
Sunlit
N/A
Visualization observer readout
Local Sidereal Time
09:19:34
Azimuth
Unknown
Elevation
Unknown
Doppler factor
Unknown
Orbital elements
Apogee altitude
541.046 km
Perigee altitude
538.99 km
Semi-major axis
6,918.155 km
Eccentricity
0.00015
Inclination
53.2176°
RAAN
78.4115°
Arg. of periapsis
95.5571°
True anomaly
264.54215°
Mean anomaly
264.5591°
Eccentric anomaly
264.55062°
Mean motion
3.77188 °/min
Orbital period
95.44 mins
BSTAR
-0.000022731
Loading maneuver chart data...
Computing Atmospheric mass density...
Loading historical data...
Loading historical data...
Loading historical data...
Loading historical data...
Loading historical data...
Loading historical data...
Loading historical data...

Documentation

Showing up to 5 results
|